Time,TemperatureF,DewpointF,PressureIn,WindDirection,WindDirectionDegrees,WindSpeedMPH,WindSpeedGustMPH,Humidity,HourlyPrecipIn,Conditions,Clouds,dailyrainin,SoftwareType,DateUTC
2013-04-20 00:00:00,61.0,59.0,29.74,NNW,339,3.0,11.0,92,-99.99,,,-99.99,,2013-04-20 04:00:00,
2013-04-20 00:23:00,61.0,59.0,29.74,NNW,339,3.0,11.0,92,-99.99,,,-99.99,,2013-04-20 04:23:00,
2013-04-20 00:33:00,61.0,59.0,29.74,NNW,339,3.0,11.0,92,-99.99,,,-99.99,,2013-04-20 04:33:00,
2013-04-20 00:43:00,61.0,59.0,29.74,NNW,339,3.0,11.0,92,-99.99,,,-99.99,,2013-04-20 04:43:00,
2013-04-20 00:53:00,61.0,59.0,29.74,NNW,339,3.0,11.0,92,-99.99,,,-99.99,,2013-04-20 04:53:00,
2013-04-20 01:00:00,61.0,58.0,29.71,NE,34,4.0,13.0,90,-99.99,,,-99.99,,2013-04-20 05:00:00,
2013-04-20 01:32:00,61.0,58.0,29.71,NE,34,4.0,13.0,90,-99.99,,,-99.99,,2013-04-20 05:32:00,
2013-04-20 01:43:00,61.0,58.0,29.71,NE,34,4.0,13.0,90,-99.99,,,-99.99,,2013-04-20 05:43:00,
2013-04-20 01:52:00,61.0,58.0,29.71,NE,34,4.0,13.0,90,-99.99,,,-99.99,,2013-04-20 05:52:00,
2013-04-20 03:00:00,49.0,45.0,29.77,ESE,115,10.0,20.0,88,-99.99,,,-99.99,,2013-04-20 07:00:00,
2013-04-20 03:22:00,49.0,45.0,29.77,ESE,115,10.0,20.0,88,-99.99,,,-99.99,,2013-04-20 07:22:00,
2013-04-20 03:32:00,49.0,45.0,29.77,ESE,115,10.0,20.0,88,-99.99,,,-99.99,,2013-04-20 07:32:00,
2013-04-20 03:42:00,49.0,45.0,29.77,ESE,115,10.0,20.0,88,-99.99,,,-99.99,,2013-04-20 07:42:00,
2013-04-20 03:52:00,49.0,45.0,29.77,ESE,115,10.0,20.0,88,-99.99,,,-99.99,,2013-04-20 07:52:00,
2013-04-20 04:00:00,46.0,43.0,29.80,West,270,7.0,18.0,90,-99.99,,,-99.99,,2013-04-20 08:00:00,
2013-04-20 04:22:00,46.0,43.0,29.80,West,270,7.0,18.0,90,-99.99,,,-99.99,,2013-04-20 08:22:00,
2013-04-20 04:32:00,46.0,43.0,29.80,West,270,7.0,18.0,90,-99.99,,,-99.99,,2013-04-20 08:32:00,
2013-04-20 04:42:00,46.0,43.0,29.80,West,270,7.0,18.0,90,-99.99,,,-99.99,,2013-04-20 08:42:00,
2013-04-20 04:52:00,46.0,43.0,29.80,West,270,7.0,18.0,90,-99.99,,,-99.99,,2013-04-20 08:52:00,
2013-04-20 05:00:00,45.0,42.0,29.85,SW,228,1.0,16.0,90,-99.99,,,-99.99,,2013-04-20 09:00:00,
2013-04-20 05:22:00,45.0,42.0,29.85,SW,228,1.0,16.0,90,-99.99,,,-99.99,,2013-04-20 09:22:00,
2013-04-20 05:33:00,45.0,42.0,29.85,SW,228,1.0,16.0,90,-99.99,,,-99.99,,2013-04-20 09:33:00,
2013-04-20 05:43:00,45.0,42.0,29.85,SW,228,1.0,16.0,90,-99.99,,,-99.99,,2013-04-20 09:43:00,
2013-04-20 05:53:00,45.0,42.0,29.85,SW,228,1.0,16.0,90,-99.99,,,-99.99,,2013-04-20 09:53:00,
2013-04-20 06:00:00,44.0,42.0,29.88,WSW,238,2.0,10.0,91,-99.99,,,-99.99,,2013-04-20 10:00:00,
2013-04-20 06:23:00,44.0,42.0,29.88,WSW,238,2.0,10.0,91,-99.99,,,-99.99,,2013-04-20 10:23:00,
2013-04-20 06:33:00,44.0,42.0,29.88,WSW,238,2.0,10.0,91,-99.99,,,-99.99,,2013-04-20 10:33:00,
2013-04-20 06:42:00,44.0,42.0,29.88,WSW,238,2.0,10.0,91,-99.99,,,-99.99,,2013-04-20 10:42:00,
2013-04-20 06:53:00,44.0,42.0,29.88,WSW,238,2.0,10.0,91,-99.99,,,-99.99,,2013-04-20 10:53:00,
2013-04-20 07:00:00,45.0,42.0,29.91,SSE,158,0.0,5.0,92,-99.99,,,-99.99,,2013-04-20 11:00:00,
2013-04-20 07:23:00,45.0,42.0,29.91,SSE,158,0.0,5.0,92,-99.99,,,-99.99,,2013-04-20 11:23:00,
2013-04-20 07:32:00,45.0,42.0,29.91,SSE,158,0.0,5.0,92,-99.99,,,-99.99,,2013-04-20 11:32:00,
2013-04-20 07:42:00,45.0,42.0,29.91,SSE,158,0.0,5.0,92,-99.99,,,-99.99,,2013-04-20 11:42:00,
2013-04-20 07:53:00,45.0,42.0,29.91,SSE,158,0.0,5.0,92,-99.99,,,-99.99,,2013-04-20 11:53:00,
2013-04-20 08:00:00,46.0,44.0,29.91,South,186,0.0,4.0,91,-99.99,,,-99.99,,2013-04-20 12:00:00,
2013-04-20 08:32:00,46.0,44.0,29.91,South,186,0.0,4.0,91,-99.99,,,-99.99,,2013-04-20 12:32:00,
2013-04-20 08:42:00,46.0,44.0,29.91,South,186,0.0,4.0,91,-99.99,,,-99.99,,2013-04-20 12:42:00,
2013-04-20 08:52:00,46.0,44.0,29.91,South,186,0.0,4.0,91,-99.99,,,-99.99,,2013-04-20 12:52:00,
2013-04-20 09:00:00,50.0,42.0,29.94,NW,304,0.0,8.0,72,-99.99,,,-99.99,,2013-04-20 13:00:00,
2013-04-20 09:22:00,50.0,42.0,29.94,NW,304,0.0,8.0,72,-99.99,,,-99.99,,2013-04-20 13:22:00,
2013-04-20 09:32:00,50.0,42.0,29.94,NW,304,0.0,8.0,72,-99.99,,,-99.99,,2013-04-20 13:32:00,
2013-04-20 09:42:00,50.0,42.0,29.94,NW,304,0.0,8.0,72,-99.99,,,-99.99,,2013-04-20 13:42:00,
2013-04-20 09:52:00,50.0,42.0,29.94,NW,304,0.0,8.0,72,-99.99,,,-99.99,,2013-04-20 13:52:00,
2013-04-20 10:00:00,50.0,34.0,30.00,SE,126,7.0,17.0,53,-99.99,,,-99.99,,2013-04-20 14:00:00,
2013-04-20 10:22:00,50.0,34.0,30.00,SE,126,7.0,17.0,53,-99.99,,,-99.99,,2013-04-20 14:22:00,
2013-04-20 10:32:00,50.0,34.0,30.00,SE,126,7.0,17.0,53,-99.99,,,-99.99,,2013-04-20 14:32:00,
2013-04-20 10:42:00,50.0,34.0,30.00,SE,126,7.0,17.0,53,-99.99,,,-99.99,,2013-04-20 14:42:00,
2013-04-20 10:52:00,50.0,34.0,30.00,SE,126,7.0,17.0,53,-99.99,,,-99.99,,2013-04-20 14:52:00,
2013-04-20 11:00:00,51.0,34.0,30.03,ESE,122,2.0,16.0,51,-99.99,,,-99.99,,2013-04-20 15:00:00,
2013-04-20 11:22:00,51.0,34.0,30.03,ESE,122,2.0,16.0,51,-99.99,,,-99.99,,2013-04-20 15:22:00,
2013-04-20 11:34:00,51.0,34.0,30.03,ESE,122,2.0,16.0,51,-99.99,,,-99.99,,2013-04-20 15:34:00,
2013-04-20 11:43:00,51.0,34.0,30.03,ESE,122,2.0,16.0,51,-99.99,,,-99.99,,2013-04-20 15:43:00,
2013-04-20 11:53:00,51.0,34.0,30.03,ESE,122,2.0,16.0,51,-99.99,,,-99.99,,2013-04-20 15:53:00,
2013-04-20 12:00:00,51.0,28.0,30.03,West,274,7.0,12.0,41,-99.99,,,-99.99,,2013-04-20 16:00:00,
2013-04-20 12:23:00,51.0,28.0,30.03,West,274,7.0,12.0,41,-99.99,,,-99.99,,2013-04-20 16:23:00,
2013-04-20 12:33:00,51.0,28.0,30.03,West,274,7.0,12.0,41,-99.99,,,-99.99,,2013-04-20 16:33:00,
2013-04-20 12:42:00,51.0,28.0,30.03,West,274,7.0,12.0,41,-99.99,,,-99.99,,2013-04-20 16:42:00,
2013-04-20 12:53:00,51.0,28.0,30.03,West,274,7.0,12.0,41,-99.99,,,-99.99,,2013-04-20 16:53:00,
2013-04-20 13:00:00,51.0,27.0,30.03,WNW,298,4.0,22.0,40,-99.99,,,-99.99,,2013-04-20 17:00:00,
2013-04-20 13:23:00,51.0,27.0,30.03,WNW,298,4.0,22.0,40,-99.99,,,-99.99,,2013-04-20 17:23:00,
2013-04-20 13:33:00,51.0,27.0,30.03,WNW,298,4.0,22.0,40,-99.99,,,-99.99,,2013-04-20 17:33:00,
2013-04-20 13:42:00,51.0,27.0,30.03,WNW,298,4.0,22.0,40,-99.99,,,-99.99,,2013-04-20 17:42:00,
2013-04-20 13:52:00,51.0,27.0,30.03,WNW,298,4.0,22.0,40,-99.99,,,-99.99,,2013-04-20 17:52:00,
2013-04-20 14:00:00,53.0,29.0,30.03,West,280,9.0,14.0,40,-99.99,,,-99.99,,2013-04-20 18:00:00,
2013-04-20 14:32:00,53.0,29.0,30.03,West,280,9.0,14.0,40,-99.99,,,-99.99,,2013-04-20 18:32:00,
2013-04-20 14:42:00,53.0,29.0,30.03,West,280,9.0,14.0,40,-99.99,,,-99.99,,2013-04-20 18:42:00,
2013-04-20 14:52:00,53.0,29.0,30.03,West,280,9.0,14.0,40,-99.99,,,-99.99,,2013-04-20 18:52:00,
2013-04-20 15:00:00,55.0,30.0,30.03,WSW,237,6.0,15.0,39,-99.99,,,-99.99,,2013-04-20 19:00:00,
2013-04-20 15:22:00,55.0,30.0,30.03,WSW,237,6.0,15.0,39,-99.99,,,-99.99,,2013-04-20 19:22:00,
2013-04-20 15:32:00,55.0,30.0,30.03,WSW,237,6.0,15.0,39,-99.99,,,-99.99,,2013-04-20 19:32:00,
2013-04-20 15:42:00,55.0,30.0,30.03,WSW,237,6.0,15.0,39,-99.99,,,-99.99,,2013-04-20 19:42:00,
2013-04-20 15:52:00,55.0,30.0,30.03,WSW,237,6.0,15.0,39,-99.99,,,-99.99,,2013-04-20 19:52:00,
2013-04-20 16:00:00,57.0,28.0,30.03,SSE,151,8.0,14.0,33,-99.99,,,-99.99,,2013-04-20 20:00:00,
2013-04-20 16:22:00,57.0,28.0,30.03,SSE,151,8.0,14.0,33,-99.99,,,-99.99,,2013-04-20 20:22:00,
2013-04-20 16:32:00,57.0,28.0,30.03,SSE,151,8.0,14.0,33,-99.99,,,-99.99,,2013-04-20 20:32:00,
2013-04-20 16:42:00,57.0,28.0,30.03,SSE,151,8.0,14.0,33,-99.99,,,-99.99,,2013-04-20 20:42:00,
2013-04-20 16:52:00,57.0,28.0,30.03,SSE,151,8.0,14.0,33,-99.99,,,-99.99,,2013-04-20 20:52:00,
2013-04-20 17:00:00,57.0,28.0,30.06,WSW,240,4.0,13.0,33,-99.99,,,-99.99,,2013-04-20 21:00:00,
2013-04-20 17:22:00,57.0,28.0,30.06,WSW,240,4.0,13.0,33,-99.99,,,-99.99,,2013-04-20 21:22:00,
2013-04-20 17:33:00,57.0,28.0,30.06,WSW,240,4.0,13.0,33,-99.99,,,-99.99,,2013-04-20 21:33:00,
2013-04-20 17:43:00,57.0,28.0,30.06,WSW,240,4.0,13.0,33,-99.99,,,-99.99,,2013-04-20 21:43:00,
2013-04-20 17:53:00,57.0,28.0,30.06,WSW,240,4.0,13.0,33,-99.99,,,-99.99,,2013-04-20 21:53:00,
2013-04-20 18:00:00,58.0,25.0,30.09,SW,231,6.0,22.0,28,-99.99,,,-99.99,,2013-04-20 22:00:00,
2013-04-20 18:23:00,58.0,25.0,30.09,SW,231,6.0,22.0,28,-99.99,,,-99.99,,2013-04-20 22:23:00,
2013-04-20 18:33:00,58.0,25.0,30.09,SW,231,6.0,22.0,28,-99.99,,,-99.99,,2013-04-20 22:33:00,
2013-04-20 18:42:00,58.0,25.0,30.09,SW,231,6.0,22.0,28,-99.99,,,-99.99,,2013-04-20 22:42:00,
2013-04-20 18:53:00,58.0,25.0,30.09,SW,231,6.0,22.0,28,-99.99,,,-99.99,,2013-04-20 22:53:00,
2013-04-20 19:00:00,56.0,25.0,30.12,SW,227,6.0,21.0,30,-99.99,,,-99.99,,2013-04-20 23:00:00,
2013-04-20 19:22:00,56.0,25.0,30.12,SW,227,6.0,21.0,30,-99.99,,,-99.99,,2013-04-20 23:22:00,
2013-04-20 19:32:00,56.0,25.0,30.12,SW,227,6.0,21.0,30,-99.99,,,-99.99,,2013-04-20 23:32:00,
2013-04-20 19:42:00,56.0,25.0,30.12,SW,227,6.0,21.0,30,-99.99,,,-99.99,,2013-04-20 23:42:00,
2013-04-20 19:53:00,56.0,25.0,30.12,SW,227,6.0,21.0,30,-99.99,,,-99.99,,2013-04-20 23:53:00,
2013-04-20 20:00:00,53.0,24.0,30.15,East,86,4.0,19.0,32,-99.99,,,-99.99,,2013-04-21 00:00:00,
2013-04-20 20:32:00,53.0,24.0,30.15,East,86,4.0,19.0,32,-99.99,,,-99.99,,2013-04-21 00:32:00,
2013-04-20 20:42:00,53.0,24.0,30.15,East,86,4.0,19.0,32,-99.99,,,-99.99,,2013-04-21 00:42:00,
2013-04-20 20:52:00,53.0,24.0,30.15,East,86,4.0,19.0,32,-99.99,,,-99.99,,2013-04-21 00:52:00,
2013-04-20 21:00:00,52.0,25.0,30.21,ENE,64,2.0,10.0,35,-99.99,,,-99.99,,2013-04-21 01:00:00,
2013-04-20 21:22:00,52.0,25.0,30.21,ENE,64,2.0,10.0,35,-99.99,,,-99.99,,2013-04-21 01:22:00,
2013-04-20 21:32:00,52.0,25.0,30.21,ENE,64,2.0,10.0,35,-99.99,,,-99.99,,2013-04-21 01:32:00,
2013-04-20 21:42:00,52.0,25.0,30.21,ENE,64,2.0,10.0,35,-99.99,,,-99.99,,2013-04-21 01:42:00,
2013-04-20 21:52:00,52.0,25.0,30.21,ENE,64,2.0,10.0,35,-99.99,,,-99.99,,2013-04-21 01:52:00,
2013-04-20 22:00:00,50.0,26.0,30.24,South,188,3.0,10.0,39,-99.99,,,-99.99,,2013-04-21 02:00:00,
2013-04-20 22:22:00,50.0,26.0,30.24,South,188,3.0,10.0,39,-99.99,,,-99.99,,2013-04-21 02:22:00,
2013-04-20 22:32:00,50.0,26.0,30.24,South,188,3.0,10.0,39,-99.99,,,-99.99,,2013-04-21 02:32:00,
2013-04-20 22:42:00,50.0,26.0,30.24,South,188,3.0,10.0,39,-99.99,,,-99.99,,2013-04-21 02:42:00,
2013-04-20 22:52:00,50.0,26.0,30.24,South,188,3.0,10.0,39,-99.99,,,-99.99,,2013-04-21 02:52:00,
2013-04-20 23:00:00,49.0,25.0,30.27,SW,230,3.0,10.0,39,-99.99,,,-99.99,,2013-04-21 03:00:00,
2013-04-20 23:22:00,49.0,25.0,30.27,SW,230,3.0,10.0,39,-99.99,,,-99.99,,2013-04-21 03:22:00,
2013-04-20 23:33:00,49.0,25.0,30.27,SW,230,3.0,10.0,39,-99.99,,,-99.99,,2013-04-21 03:33:00,
2013-04-20 23:42:00,49.0,25.0,30.27,SW,230,3.0,10.0,39,-99.99,,,-99.99,,2013-04-21 03:42:00,
2013-04-20 23:53:00,49.0,25.0,30.27,SW,230,3.0,10.0,39,-99.99,,,-99.99,,2013-04-21 03:53:00,